Sarasota, FL

4:05 AM EDT on March 30, 2017 (GMT -0400)
Sarasota-bradenton

Weather History for KSRQ - October, 2012

Change the Weather History Date:

Saturday, October 20, 2012

  Actual Average Record
Temperature  
Mean Temperature 74 °F 75 °F  
Max Temperature 85 °F 84 °F 91 °F (2005)
Min Temperature 63 °F 67 °F 46 °F (1996)
Degree Days  
Heating Degree Days 0 0  
Month to date heating degree days 0 0  
Since 1 July heating degree days 0 0  
Cooling Degree Days 9 11  
Month to date cooling degree days 288 255  
Year to date cooling degree days 3552 3044  
Growing Degree Days 25 (Base 50)    
Moisture  
Dew Point 62 °F    
Average Humidity 62    
Maximum Humidity 87    
Minimum Humidity 40    
Precipitation  
Precipitation T in 0.09 in 3.53 in (1952)
Month to date precipitation 3.32 2.26  
Year to date precipitation 43.69 47.69  
Sea Level Pressure  
Sea Level Pressure 29.90 in    
Wind  
Wind Speed 7 mph (North)    
Max Wind Speed 13 mph    
Max Gust Speed 23 mph    
Visibility 10 miles    
Events      
T = Trace of Precipitation, MM = Missing Value Source: NWS Daily Summary

Daily Weather History Graph

Daily Weather History Graph

Search for Another Location

Airport or City:

Trip Planner

Search our weather history database for the weather conditions in past years. The results will help you decide how hot, cold, wet, or windy it might be!

Date:

Astronomy

Oct. 20, 2012 Rise Set
Actual Time 7:33 AM EDT 6:56 PM EDT
Civil Twilight 7:09 AM EDT 7:19 PM EDT
Nautical Twilight 6:42 AM EDT 7:46 PM EDT
Astronomical Twilight 6:15 AM EDT 8:14 PM EDT
Moon 12:53 PM EDT (10/20) 11:54 PM EDT (10/20)
Length of Visible Light 12h 10m
Length of Day
11h 22m
Waxing Crescent, 34% of the Moon is Illuminated
Oct 20
Waxing Crescent
Oct 21
First Quarter
Oct 29
Full
Nov 6
Last Quarter
Nov 13
New

Hourly Weather History & Observations

Time (EDT) Temp. Heat Index Dew Point Humidity Pressure Visibility Wind Dir Wind Speed Gust Speed Precip Events Conditions
12:53 AM 80.1 °F 83.8 °F 72.0 °F 76% 29.87 in 10.0 mi West 6.9 mph - N/A   Clear
1:53 AM 79.0 °F - 72.0 °F 79% 29.86 in 10.0 mi WSW 6.9 mph - N/A   Partly Cloudy
2:53 AM 80.1 °F 83.8 °F 72.0 °F 76% 29.85 in 10.0 mi West 6.9 mph - N/A   Partly Cloudy
3:53 AM 78.1 °F - 71.1 °F 79% 29.85 in 10.0 mi WNW 8.1 mph - N/A   Clear
4:53 AM 75.9 °F - 71.1 °F 85% 29.85 in 10.0 mi NNW 4.6 mph - N/A   Partly Cloudy
5:53 AM 75.9 °F - 71.1 °F 85% 29.87 in 10.0 mi North 4.6 mph - 0.00 in   Clear
6:46 AM 75.2 °F - 69.8 °F 83% 29.88 in 10.0 mi North 8.1 mph - N/A   Mostly Cloudy
6:53 AM 75.9 °F - 69.1 °F 79% 29.89 in 10.0 mi North 6.9 mph - N/A   Mostly Cloudy
7:53 AM 75.0 °F - 68.0 °F 79% 29.90 in 10.0 mi NNE 6.9 mph - N/A   Scattered Clouds
8:53 AM 77.0 °F - 64.9 °F 66% 29.92 in 10.0 mi NNE 8.1 mph - N/A   Clear
9:53 AM 77.0 °F - 62.1 °F 60% 29.94 in 10.0 mi NE 10.4 mph 17.3 mph N/A   Clear
10:53 AM 80.1 °F 80.6 °F 57.9 °F 47% 29.95 in 10.0 mi NE 10.4 mph - N/A   Clear
11:53 AM 82.0 °F 82.0 °F 57.9 °F 44% 29.94 in 10.0 mi NNE 9.2 mph - N/A   Clear
12:53 PM 82.9 °F 82.4 °F 57.0 °F 41% 29.93 in 10.0 mi North 9.2 mph - N/A   Clear
1:53 PM 84.0 °F 83.3 °F 57.0 °F 40% 29.90 in 10.0 mi Calm Calm - N/A   Clear
2:53 PM 84.0 °F 83.8 °F 59.0 °F 43% 29.88 in 10.0 mi North 9.2 mph - N/A   Clear
3:53 PM 82.0 °F 82.1 °F 59.0 °F 45% 29.87 in 10.0 mi Variable 6.9 mph - N/A   Clear
4:53 PM 82.9 °F 83.2 °F 60.1 °F 46% 29.87 in 10.0 mi North 9.2 mph - N/A   Clear
5:53 PM 79.0 °F - 59.0 °F 50% 29.88 in 10.0 mi NW 11.5 mph - N/A   Clear
6:53 PM 75.0 °F - 57.9 °F 55% 29.88 in 10.0 mi NNW 8.1 mph - N/A   Clear
7:53 PM 73.0 °F - 55.9 °F 55% 29.91 in 10.0 mi NNW 6.9 mph - N/A   Clear
8:53 PM 71.1 °F - 53.1 °F 53% 29.92 in 10.0 mi North 5.8 mph - N/A   Clear
9:53 PM 70.0 °F - 53.1 °F 55% 29.95 in 10.0 mi NNE 3.5 mph - N/A   Clear
10:53 PM 66.9 °F - 54.0 °F 63% 29.96 in 10.0 mi Calm Calm - N/A   Clear
11:53 PM 66.0 °F - 55.0 °F 68% 29.97 in 10.0 mi Calm Calm - N/A   Clear